Lapse_Rate
4.7 3.6 0.9 -0.1 0.1 0.1 0.9 1.6 3.0 2.3 1.9 -1.8 -1.5 -1.8 0.2 0.4 1.5 0.4 2.1 1.2 3.1 4.1 4.5 5.6 5.6 5.8 5.4 4.8 4.2 4.5 4.9 5.6 8.2 9.3 9.4 9.4 9.4 9.5
0.7 0.3 -0.6 -1.2 -1.6 -1.4 -0.9 0.2 1.0 1.9 2.0 0.2 -0.6 0.1 -0.4 0.3 -0.4 1.2 2.2 3.0 3.5 4.6 5.2 5.7 5.5 5.7 5.3 5.4 5.6 5.5 6.9 8.9 9.3 9.4 9.4 9.4 9.4 9.4
0.2 -0.1 -0.8 -0.8 -1.4 -1.4 -0.4 0.5 0.8 1.0 1.4 0.6 -0.2 0.7 -0.1 0.4 1.8 2.3 2.6 2.5 2.9 4.3 5.1 5.5 5.8 5.8 5.4 5.7 5.6 6.8 9.0 9.1 9.3 9.3 9.3 9.3 9.4 9.3
-0.2 -0.4 -0.6 -0.3 -0.2 0.7 0.9 1.1 1.3 0.6 2.3 1.3 0.3 0.0 0.8 1.2 1.8 2.3 3.6 4.1 4.0 4.5 5.5 5.9 6.2 6.5 6.7 6.1 6.3 7.4 7.8 8.0 8.5 9.3 9.1 9.2 9.2 9.4
0.1 -1.2 0.3 1.3 1.3 1.3 1.3 1.6 -0.1 1.2 0.9 2.4 1.6 1.3 2.0 2.5 2.8 2.7 2.2 2.7 4.1 6.4 6.4 6.3 7.2 6.2 6.2 6.5 6.2 6.5 6.8 7.3 8.1 8.8 9.2 9.2 9.2 9.3
1.0 -1.1 1.4 1.7 2.2 1.6 1.8 1.4 2.0 1.4 2.0 2.7 2.6 2.6 2.9 3.1 2.6 2.7 2.6 3.7 3.8 6.2 5.6 6.4 6.1 6.0 6.5 6.7 7.0 7.1 7.2 7.7 8.7 8.9 8.9 8.9 8.9 9.2
1.9 1.9 2.5 3.1 3.7 3.5 3.1 2.5 2.5 2.6 2.2 2.1 2.2 1.8 2.9 4.3 4.9 5.3 4.8 4.2 3.7 4.2 3.0 3.2 4.1 4.3 4.5 5.2 5.8 6.5 7.0 8.8 9.4 9.4 9.3 9.3 9.2 9.2
1.4 1.2 0.5 2.2 3.0 4.0 5.7 6.0 4.9 3.4 2.3 1.8 1.8 3.9 5.3 5.8 5.8 5.1 3.7 3.1 2.5 4.0 3.3 2.5 3.8 1.9 3.2 4.4 5.5 7.1 8.4 9.1 9.3 9.3 9.3 9.4 9.4 9.2
1.7 1.8 2.4 2.6 1.9 2.3 4.9 5.2 5.8 6.5 5.9 4.7 4.3 5.0 5.6 6.0 3.7 2.9 4.9 2.6 2.6 3.4 3.3 1.1 2.9 2.2 3.8 4.7 5.8 6.4 6.9 7.4 7.7 8.1 8.6 9.1 9.2 9.1
2.3 3.6 3.7 3.8 4.8 4.9 5.0 4.5 4.8 5.0 5.5 6.2 4.9 4.8 5.4 6.0 5.9 4.2 3.2 3.2 2.6 3.2 4.7 2.3 2.5 2.3 2.7 2.8 4.4 5.2 6.0 6.8 7.5 8.2 8.8 8.9 9.2 8.7
4.2 4.7 5.0 4.8 6.3 6.6 5.1 5.0 5.3 5.6 7.9 8.5 7.7 7.3 7.1 7.0 6.7 2.8 1.8 1.9 2.2 2.5 3.0 2.3 1.9 1.8 2.5 1.8 2.6 4.7 6.2 6.6 6.5 6.7 7.6 9.1 9.0 8.7
4.8 4.6 6.1 5.7 6.4 6.1 4.4 4.3 4.8 5.3 5.1 5.4 4.9 5.1 5.8 5.5 7.2 5.0 2.3 0.2 4.4 3.1 2.5 1.4 1.1 2.1 3.3 0.3 0.9 3.8 3.0 4.2 5.4 5.9 6.3 7.0 8.6 8.2
4.3 4.2 4.1 5.7 5.7 5.7 5.8 3.8 5.2 5.7 5.5 3.8 3.8 3.6 4.2 4.4 4.6 4.9 4.3 0.3 4.2 4.8 4.5 6.0 1.5 4.3 5.3 4.8 0.7 0.4 2.3 2.1 2.8 3.2 4.0 5.1 6.0 6.8
4.5 3.8 4.2 6.4 6.0 6.1 5.4 6.4 6.8 6.0 3.9 4.1 4.5 3.6 3.3 2.7 4.2 4.5 4.1 4.1 4.2 3.6 4.0 4.6 4.2 4.5 5.0 4.8 4.5 1.8 1.8 2.6 1.9 1.3 2.8 3.9 5.3 6.6
4.1 5.1 5.9 6.3 6.3 5.1 6.3 6.5 6.3 3.8 4.1 3.0 2.9 3.8 4.6 4.6 4.8 4.1 3.8 3.7 3.7 3.8 4.4 5.0 4.4 5.0 5.9 6.1 5.8 4.3 5.1 3.6 3.0 2.2 0.7 2.9 3.3 4.4
4.7 3.2 5.7 6.3 6.6 5.9 5.8 5.2 4.5 4.1 3.4 2.3 2.0 1.7 1.7 4.3 4.3 4.0 4.2 4.4 4.0 3.4 4.5 5.6 5.7 6.0 6.5 6.5 6.0 4.4 4.5 5.6 4.6 4.3 4.8 4.0 4.2 4.7
4.2 3.4 3.9 4.3 4.3 4.3 4.3 4.4 4.1 4.3 2.8 2.3 4.0 4.4 4.2 4.1 4.1 4.0 4.0 4.1 4.4 4.1 4.1 6.3 7.6 7.3 6.9 5.9 5.5 5.3 5.9 5.9 5.7 5.9 6.6 6.6 5.6 5.4
3.4 3.4 3.0 2.5 3.0 4.0 4.1 3.9 3.6 4.8 4.5 4.1 3.6 3.4 3.2 3.3 3.5 3.6 4.0 4.3 4.5 4.4 6.4 6.2 7.3 7.0 7.0 6.2 6.1 5.5 6.4 6.0 5.6 5.5 5.5 5.7 5.5 4.9
2.9 1.9 2.2 2.5 2.6 2.5 1.9 3.4 4.0 4.1 3.8 3.5 3.4 3.3 3.4 3.6 4.5 3.8 4.2 4.6 4.9 5.1 5.7 7.0 7.1 6.9 6.9 6.5 6.0 8.0 6.5 6.0 5.9 5.8 5.4 5.4 6.3 5.7
1.6 1.7 2.0 2.4 2.4 1.8 3.7 4.0 3.4 3.3 3.2 3.4 3.2 3.2 3.3 3.5 3.9 4.0 4.4 4.6 4.8 5.1 6.0 6.7 7.1 7.1 6.9 6.7 6.6 6.4 6.8 6.4 6.1 6.0 5.6 5.9 6.2 6.7
2.0 1.8 2.2 1.9 1.6 3.8 4.0 3.8 3.3 3.0 3.3 3.3 3.4 3.3 3.5 3.6 3.5 3.9 4.5 5.8 6.5 6.0 5.2 4.6 4.9 7.0 7.0 6.3 6.3 6.3 6.3 6.9 7.0 6.6 6.7 6.4 6.3 6.8
2.2 2.1 2.1 1.8 0.9 2.8 4.2 3.8 3.2 3.4 3.1 3.2 3.3 3.6 3.9 3.8 4.1 4.3 4.6 4.8 5.0 5.1 5.0 4.4 4.2 4.6 5.4 6.4 6.5 7.0 7.3 6.8 7.2 7.5 7.6 7.5 6.9 6.8
1.5 1.8 1.2 0.8 -0.2 2.5 4.6 4.1 3.7 3.7 3.5 3.5 3.5 3.4 3.5 3.7 4.0 4.2 4.5 4.7 4.8 4.8 4.9 5.1 5.6 5.3 6.1 6.9 7.4 7.5 7.2 6.5 7.2 6.5 6.4 7.0 7.9 7.9
Wind_Speed
8 4 3 1 2 2 2 3 4 4 7 4 4 7 11 13 9 7 6 4 8 13 15 15 15 17 16 17 17 19 20 20 19 19 20 21 21 21
3 5 5 4 4 3 2 1 2 3 2 1 3 2 7 7 9 5 8 10 14 16 16 15 16 16 16 19 20 20 20 20 19 19 21 21 21 22
5 6 6 5 4 4 3 2 1 2 3 2 2 2 3 4 5 9 13 12 13 13 13 15 16 16 18 19 19 20 20 20 20 19 20 21 22 22
6 7 5 5 5 3 3 3 1 2 0 4 2 2 2 4 5 4 7 9 11 11 12 14 16 17 17 17 18 18 18 19 19 20 21 21 22 24
5 10 5 5 5 4 4 3 5 2 4 3 2 1 2 3 3 4 4 9 12 10 10 14 14 16 18 17 17 18 19 19 20 20 21 22 23 24
7 11 7 6 6 5 4 3 3 4 2 2 2 2 1 2 2 3 2 1 2 5 10 13 16 15 14 16 19 19 19 19 19 20 20 21 21 23
9 9 6 9 9 6 3 2 3 3 2 2 1 1 1 1 2 1 1 1 2 3 3 3 6 13 15 15 17 19 19 19 19 20 22 23 25 26
7 7 8 9 9 8 7 4 3 2 1 1 0 2 1 1 2 2 1 1 2 2 3 5 8 4 11 14 17 19 20 20 21 22 22 24 24 24
6 5 4 4 5 1 1 2 3 3 2 2 1 1 1 1 3 1 1 2 3 4 3 7 2 7 11 13 18 22 21 22 22 22 22 22 22 23
5 2 2 3 2 3 4 3 3 2 2 1 2 2 2 2 1 3 2 3 3 3 2 4 0 6 8 13 20 21 17 15 17 19 21 21 22 23
4 4 5 4 5 5 4 2 3 3 5 4 4 6 6 7 7 2 2 2 3 2 2 2 2 3 6 8 13 11 11 16 21 21 22 22 23 24
3 3 6 4 7 8 5 4 4 2 3 3 3 5 6 6 7 3 3 2 2 3 2 3 3 2 4 2 2 15 13 15 20 21 23 24 23 16
2 2 2 6 7 7 5 2 2 3 5 4 4 3 3 3 2 2 2 3 3 6 7 3 2 5 3 5 2 3 13 10 14 18 20 21 20 18
3 2 3 8 7 5 4 4 6 6 3 3 2 3 1 2 3 5 7 8 9 8 12 10 4 7 7 9 10 5 7 14 11 4 11 18 19 21
1 3 5 6 5 5 2 6 5 3 3 2 2 2 2 3 7 6 9 12 11 12 14 14 7 9 7 8 10 11 11 6 9 5 3 7 8 10
6 4 5 3 4 4 3 3 1 1 1 1 2 2 2 4 4 2 3 3 4 6 14 18 14 9 8 8 10 12 9 6 9 10 9 9 12 14
4 3 2 1 2 3 2 2 2 2 1 2 3 5 5 5 5 3 4 4 5 7 7 4 12 15 10 12 11 11 11 11 10 10 10 9 9 8
2 2 2 2 2 3 3 3 2 4 2 2 2 4 4 4 5 4 4 5 7 7 8 6 7 7 7 9 18 12 10 10 8 7 7 9 11 9
1 2 1 2 2 2 2 3 4 3 4 3 3 4 4 4 8 5 5 6 8 8 7 7 7 6 9 10 6 18 9 9 10 10 8 8 11 11
2 2 2 2 2 2 4 5 3 4 4 4 4 4 5 5 5 5 5 6 7 8 8 6 7 7 8 10 12 12 21 11 9 11 11 9 11 26
2 2 2 2 2 3 4 5 4 4 5 4 4 5 5 5 6 6 7 14 13 8 9 9 9 20 9 9 9 11 8 17 17 12 12 9 10 11
3 4 3 3 3 3 6 6 5 6 5 5 5 5 5 5 7 8 7 7 8 8 10 10 11 9 8 10 13 15 13 11 15 22 27 21 10 8
3 3 3 3 3 4 7 6 6 7 5 5 6 6 6 7 7 7 8 8 9 9 9 10 10 10 11 10 14 13 17 14 10 10 11 21 22 25
Wind_Direction
227 208 136 124 109 129 144 134 160 179 216 188 174 175 189 181 180 166 220 229 259 272 280 278 281 282 287 291 293 293 292 291 288 287 286 284 282 284
65 84 88 96 87 76 94 105 88 138 150 141 49 216 155 163 179 215 244 254 260 260 263 272 279 284 290 290 292 292 289 287 287 288 286 286 285 284
71 88 94 103 109 106 95 91 98 85 124 172 98 207 152 150 192 230 240 241 252 268 279 285 286 293 293 289 289 288 289 290 290 290 289 289 288 288
98 96 97 110 107 106 108 121 42 123 246 110 161 156 180 201 213 225 250 262 268 271 282 290 294 290 289 289 290 291 288 286 285 286 286 287 287 287
94 108 111 110 109 98 84 93 89 51 67 153 160 126 172 175 205 244 238 254 258 272 295 300 303 299 295 295 290 289 288 289 288 285 283 283 283 283
67 68 68 78 95 99 101 109 149 106 97 133 103 136 150 199 193 220 282 297 277 325 317 309 298 298 302 301 299 298 294 290 287 284 283 281 280 278
47 70 74 91 100 96 103 110 111 131 149 94 96 129 164 191 204 223 122 3 316 271 298 321 325 310 296 295 300 296 294 290 287 285 283 283 281 279
60 44 55 45 48 59 67 100 111 108 113 120 232 80 324 240 38 72 111 57 313 315 335 291 284 276 283 285 288 295 297 296 292 289 286 284 283 281
62 59 61 53 46 48 250 35 16 14 20 64 34 351 1 56 132 128 213 196 234 269 312 297 223 275 278 283 294 296 297 299 296 292 290 286 283 282
53 50 133 168 37 5 6 70 8 312 267 42 78 331 313 339 111 189 218 292 304 290 260 274 307 292 293 284 292 297 300 302 301 302 299 291 286 283
117 49 39 49 20 13 27 319 326 353 359 316 287 294 287 284 284 59 351 28 312 290 287 232 299 300 302 292 281 288 305 311 307 305 302 298 293 288
70 80 47 27 12 6 31 15 5 341 347 320 332 334 320 284 283 191 160 172 266 317 296 11 345 360 325 299 333 315 296 301 306 308 304 301 300 296
41 32 33 14 356 345 346 349 282 296 324 353 324 330 334 336 317 354 221 159 253 261 279 317 314 316 264 297 269 290 294 300 307 301 298 300 301 292
33 42 5 344 341 337 354 340 330 342 333 317 326 311 312 345 345 356 342 325 297 273 288 281 271 286 284 288 293 301 301 298 276 275 286 291 292 291
108 337 344 343 345 349 319 318 331 324 307 338 307 296 349 319 303 293 269 258 254 257 275 276 261 269 259 267 280 292 298 300 292 270 251 275 273 273
19 334 319 315 299 271 299 315 301 271 249 247 270 264 303 314 304 279 280 276 269 268 256 255 245 242 268 260 265 282 286 280 291 291 286 283 280 265
349 332 330 326 332 335 342 331 323 314 307 300 312 310 309 307 306 302 291 284 274 288 286 268 260 250 244 255 275 274 284 277 275 276 277 277 279 267
354 315 313 338 348 339 335 324 318 322 319 324 324 303 291 296 296 286 275 274 280 279 282 290 290 286 276 254 243 272 272 273 272 271 273 282 289 285
292 304 307 292 282 291 288 298 302 303 306 288 269 262 272 275 300 281 279 280 286 286 276 290 289 285 295 289 281 266 282 289 291 287 276 267 279 283
208 234 261 267 274 274 293 296 298 295 292 292 280 271 273 275 285 285 284 284 283 282 281 279 285 282 279 284 291 290 272 273 274 279 281 271 269 280
283 274 247 245 248 276 286 289 287 283 291 283 283 278 271 265 270 270 274 292 295 292 288 282 277 285 286 286 280 277 271 254 260 268 276 276 286 291
260 264 261 253 243 263 286 285 280 284 277 272 271 267 267 262 271 275 272 276 277 275 279 280 286 286 280 278 280 286 293 292 279 268 262 257 271 278
255 262 265 261 255 261 283 283 280 283 273 273 271 269 267 269 267 267 270 270 273 276 277 282 290 286 278 271 282 289 287 289 298 293 283 270 268 269